• Processing (Info)

  • MPEC 2013-F19 : 2011 QF99

    The following Minor Planet Electronic Circular may be linked-to from your own Web pages, but must not otherwise be redistributed electronically.

    A form allowing access to any MPEC is at the bottom of this page.


    Read MPEC 2013-F18 Read MPEC 2013-F20


    M.P.E.C. 2013-F19                                Issued 2013 Mar. 18, 14:36 UT
    
         The Minor Planet Electronic Circulars contain information on unusual
             minor planets and routine data on comets.  They are published
       on behalf of Commission 20 of the International Astronomical Union by the
              Minor Planet Center, Smithsonian Astrophysical Observatory,
                              Cambridge, MA 02138, U.S.A.
    
                 Prepared using the Tamkin Foundation Computer Network
    
                                  MPC@CFA.HARVARD.EDU
                URL http://www.minorplanetcenter.net/    ISSN 1523-6714
    
                                       2011 QF99
    
    Observations:
         K11Q99F*~C2011 08 29.52378 01 57 34.729+14 35 44.64         22.8 rcEF019568
         K11Q99F ~C2011 08 29.56781 01 57 34.534+14 35 43.67         22.9 rcEF019568
         K11Q99F ~C2011 08 29.61470 01 57 34.343+14 35 42.59         22.9 rcEF019568
         K11Q99F ~C2011 09 05.55403 01 57 02.688+14 32 44.42         22.6 rcEF019568
         K11Q99F ~C2011 10 24.41192 01 50 39.869+13 54 31.38         22.6 rcEF019568
         K11Q99F ~C2011 10 24.43329 01 50 39.669+13 54 30.16         22.6 rcEF019568
         K11Q99F ~C2011 10 24.45467 01 50 39.467+13 54 28.85         22.6 rcEF019568
         K11Q99F ~C2011 10 24.47598 01 50 39.267+13 54 27.68         22.6 rcEF019568
         K11Q99F ~C2011 10 24.49734 01 50 39.070+13 54 26.35         22.5 rcEF019568
         K11Q99F ~C2011 10 24.51878 01 50 38.864+13 54 25.16         22.6 rcEF019568
         K11Q99F ~C2011 10 28.30888 01 50 03.916+13 50 42.62         22.3 rcEF019568
         K11Q99F ~C2011 10 28.48864 01 50 02.228+13 50 32.00         22.5 rcEF019568
         K11Q99F ~C2011 10 30.53322 01 49 43.457+13 48 31.33         22.6 rcEF019568
         K11Q99F ~C2011 10 31.51590 01 49 34.481+13 47 33.30         22.4 rcEF019568
         K11Q99F ~C2011 11 24.24514 01 46 15.827+13 25 07.81         22.7 rcEF019568
         K11Q99F ~C2011 11 26.46510 01 45 59.909+13 23 13.04               cEF019568
         K11Q99F ~C2012 01 25.25212 01 44 01.928+12 58 28.59         22.9 rcEF019568
         K11Q99F ~C2012 01 26.23689 01 44 05.667+12 58 35.77               cEF019568
         K11Q99F ~C2012 01 27.29405 01 44 09.873+12 58 44.53         23.0 rcEF019568
         K11Q99F ~C2012 02 15.25232 01 46 00.063+13 04 42.69         22.9 rcEF019568
         K11Q99F ~C2012 08 23.53769 02 13 55.018+15 15 10.94         22.9 rcEF019568
         K11Q99F ~C2012 08 24.57339 02 13 52.461+15 14 55.28         22.8 rcEF019568
         K11Q99F ~C2012 10 17.40813 02 07 59.975+14 40 38.36         22.6 rcEF019568
         K11Q99F ~C2012 10 17.42550 02 07 59.808+14 40 37.37         22.6 rcEF019568
         K11Q99F ~C2012 10 20.46016 02 07 31.588+14 37 48.92         22.4 rcEF019568
         K11Q99F ~C2012 10 20.50496 02 07 31.159+14 37 46.43         22.6 rcEF019568
         K11Q99F ~C2012 10 21.31465 02 07 23.618+14 37 01.02         22.6 rcEF019568
         K11Q99F ~C2012 10 21.34035 02 07 23.375+14 36 59.61         22.6 rcEF019568
         K11Q99F ~C2012 10 21.36603 02 07 23.133+14 36 58.12         22.6 rcEF019568
    
    Observer details:
    568 Mauna Kea.  Observer M. Alexandersen.  Measurers M. Alexandersen,
        J. Kavelaars, J. Petit, B. Gladman.  3.5-m CFHT + CCD.
    
    Orbital elements:
    2011 QF99
    Epoch 2013 Apr. 18.0 TT = JDT 2456400.5                 MPC
    M 266.87910              (2000.0)            P               Q
    n   0.01175115     Peri.  286.31989     -0.84417198     -0.52091457
    a  19.1608990      Node   222.51181     +0.53486523     -0.80261768
    e   0.1767221      Incl.   10.79614     +0.03595634     -0.29060776
    P  83.87           H    9.7           G   0.15           U   3
    Residuals in seconds of arc
    110829 568  0.2+  0.1-    111028 568  0.0   0.2+    120823 568  0.0   0.1+
    110829 568  0.0   0.1-    111028 568  0.0   0.1+    120824 568  0.1-  0.0
    110829 568  0.1+  0.1-    111030 568  0.0   0.0     121017 568  0.0   0.1+
    110905 568  0.0   0.2-    111031 568  0.0   0.0     121017 568  0.0   0.0
    111024 568  0.1-  0.0     111124 568  0.1-  0.0     121020 568  0.0   0.0
    111024 568  0.1-  0.0     111126 568  0.1-  0.1+    121020 568  0.0   0.0
    111024 568  0.1-  0.0     120125 568  0.2+  0.1-    121021 568  0.0   0.0
    111024 568  0.0   0.1+    120126 568  0.1+  0.0     121021 568  0.0   0.0
    111024 568  0.0   0.0     120127 568  0.0   0.0     121021 568  0.0   0.1-
    111024 568  0.0   0.1+    120215 568  0.1-  0.1+
    
    Ephemeris:
    2011 QF99                a,e,i = 19.16, 0.18, 11                 q = 15.775
    Date    TT    R. A. (2000) Decl.     Delta      r     Elong.  Phase     V
    2013 02 16    02 01 20.6 +13 43 36  20.3475 19.9616    65.7     2.6    23.0
    ...
    2013 03 03    02 03 26.2 +13 51 59  20.5587 19.9518    51.2     2.2    23.0
    ...
    2013 03 11    02 04 46.5 +13 57 40  20.6557 19.9467    43.5     2.0    23.0
    ...
    2013 03 17    02 05 51.9 +14 02 25  20.7199 19.9428    37.8     1.8    23.0
    2013 03 18    02 06 03.2 +14 03 14  20.7298 19.9421    36.8     1.7    23.0
    2013 03 19    02 06 14.6 +14 04 05  20.7395 19.9415    35.9     1.7    23.0
    ...
    2013 03 25    02 07 25.0 +14 09 16  20.7928 19.9376    30.2     1.4    23.0
    ...
    2013 04 02    02 09 03.6 +14 16 38  20.8504 19.9324    22.8     1.1    23.0
    ...
    2013 04 17    02 12 19.0 +14 31 23  20.9138 19.9226     8.9     0.4    22.9
    
    A. U. Tomatic                (C) Copyright 2013 MPC           M.P.E.C. 2013-F19
    

    Read MPEC 2013-F18 Read MPEC 2013-F20


    MPEC number:

    Enter an MPEC number in one of the following forms:

    • 1997-B01 (the full form)
    • J97B01 (the packed version of the full form)
    • B01 (the abbreviated form)